Fort Eustis, VA

7:23 PM EST on November 20, 2019 (GMT -0500)
Felker Army Air Field

Weather History for KFAF - September, 2019

Change the Weather History Date:

Thursday, September 5, 2019

  Actual Average Record
Temperature  
Mean Temperature 80 °F -  
Max Temperature 85 °F 81 °F 90 °F (2018)
Min Temperature 75 °F 67 °F 55 °F (1997)
Cooling Degree Days 14    
Growing Degree Days 30 (Base 50)    
Moisture  
Dew Point 72 °F    
Average Humidity 80    
Maximum Humidity 90    
Minimum Humidity 67    
Precipitation  
Precipitation 0.00 in - - ()
Sea Level Pressure  
Sea Level Pressure 29.92 in    
Wind  
Wind Speed 6 mph ()    
Max Wind Speed 14 mph    
Max Gust Speed 23 mph    
Visibility 10.0 miles    
Events Rain    
Averages and records for this station are not official NWS values.
T = Trace of Precipitation, MM = Missing Value Source: Averaged Metar Reports

Daily Weather History Graph

Daily Weather History Graph

Search for Another Location

Airport or City:

Astronomy

Sep. 05, 2019 Rise Set
Actual Time 6:40 AM EDT 7:29 PM EDT
Civil Twilight 6:13 AM EDT 7:55 PM EDT
Nautical Twilight 5:42 AM EDT 8:27 PM EDT
Astronomical Twilight 5:10 AM EDT 8:59 PM EDT
Moon 1:35 PM EDT (9/5) 11:53 PM EDT (9/5)
Length of Visible Light 13h 42m
Length of Day
12h 49m
Waxing Crescent, 45% of the Moon is Illuminated
Sep 5
Waxing Crescent
Sep 5
First Quarter
Sep 14
Full
Sep 21
Last Quarter
Sep 28
New

Hourly Weather History & Observations

Time (EDT) Temp. Heat Index Dew Point Humidity Pressure Visibility Wind Dir Wind Speed Gust Speed Precip Events Conditions
12:56 AM 79.2 °F - 73.8 °F 83% 29.95 in 10.0 mi South 5.8 mph - N/A   Clear
1:56 AM 78.8 °F - 73.2 °F 83% 29.96 in 10.0 mi South 4.6 mph - N/A   Clear
2:56 AM 77.9 °F - 73.0 °F 85% 29.95 in 10.0 mi Calm Calm - N/A   Clear
3:56 AM 77.2 °F - 72.9 °F 86% 29.95 in 10.0 mi Calm Calm - N/A   Clear
4:56 AM 76.1 °F - 72.5 °F 89% 29.96 in 10.0 mi North 3.5 mph - N/A   Clear
5:56 AM 75.9 °F - 72.3 °F 89% 29.95 in 10.0 mi Calm Calm - N/A   Scattered Clouds
6:56 AM 76.3 °F - 73.0 °F 90% 29.96 in 10.0 mi Calm Calm - N/A   Mostly Cloudy
7:56 AM 77.2 °F - 73.9 °F 90% 29.98 in 10.0 mi Calm Calm - N/A   Mostly Cloudy
8:56 AM 78.6 °F - 74.3 °F 87% 29.98 in 10.0 mi Calm Calm - N/A   Overcast
9:56 AM 80.1 °F 84.8 °F 74.7 °F 83% 29.96 in 10.0 mi ENE 5.8 mph - 0.00 in   Mostly Cloudy
10:56 AM 82.8 °F 88.2 °F 72.3 °F 71% 29.96 in 10.0 mi East 6.9 mph - N/A   Mostly Cloudy
11:56 AM 83.8 °F 89.5 °F 72.1 °F 68% 29.95 in 10.0 mi ENE 9.2 mph - N/A   Mostly Cloudy
12:56 PM 83.8 °F 89.5 °F 72.1 °F 68% 29.93 in 10.0 mi ENE 9.2 mph - N/A   Mostly Cloudy
2:56 PM 84.7 °F 91.0 °F 72.5 °F 67% 29.92 in 10.0 mi ENE 12.7 mph - N/A   Mostly Cloudy
3:35 PM 82.4 °F 87.2 °F 71.6 °F 70% 29.91 in 10.0 mi East 12.7 mph 20.7 mph N/A Rain Light Rain
3:45 PM 82.4 °F 87.2 °F 71.6 °F 70% 29.90 in 10.0 mi ENE 12.7 mph 20.7 mph N/A   Mostly Cloudy
3:56 PM 81.7 °F 86.7 °F 72.5 °F 74% 29.91 in 10.0 mi ENE 13.8 mph 20.7 mph 0.00 in   Mostly Cloudy
4:56 PM 80.8 °F 84.9 °F 72.0 °F 74% 29.90 in 10.0 mi NE 10.4 mph 18.4 mph N/A   Mostly Cloudy
5:56 PM 79.5 °F - 71.2 °F 76% 29.89 in 10.0 mi ENE 13.8 mph 19.6 mph N/A   Overcast
6:08 PM 78.8 °F - 71.6 °F 78% 29.90 in 10.0 mi ENE 11.5 mph 18.4 mph N/A   Light Drizzle
6:33 PM 77.0 °F - 71.6 °F 83% 29.89 in 10.0 mi ENE 10.4 mph - N/A   Mostly Cloudy
6:42 PM 77.0 °F - 71.6 °F 83% 29.89 in 10.0 mi East 9.2 mph 18.4 mph N/A   Light Drizzle
6:51 PM 77.0 °F - 71.6 °F 83% 29.89 in 10.0 mi NE 9.2 mph - N/A   Mostly Cloudy
6:56 PM 76.8 °F - 71.6 °F 84% 29.88 in 10.0 mi NE 12.7 mph - 0.00 in   Mostly Cloudy
7:56 PM 76.8 °F - 71.2 °F 83% 29.88 in 10.0 mi ENE 10.4 mph 19.6 mph N/A   Overcast
8:56 PM 76.3 °F - 70.3 °F 82% 29.86 in 10.0 mi NE 8.1 mph 18.4 mph N/A   Overcast
9:56 PM 76.3 °F - 70.0 °F 81% 29.86 in 10.0 mi ENE 11.5 mph - N/A   Overcast
10:56 PM 76.3 °F - 70.0 °F 81% 29.83 in 10.0 mi NE 10.4 mph 23.0 mph N/A   Overcast
11:56 PM 76.6 °F - 70.0 °F 80% 29.83 in 10.0 mi ENE 10.4 mph 18.4 mph N/A   Overcast